Year,Month,Day,Hour,Minute,Value (Times are PST for temperature in C)
2014,09,16,00,00,16.80
2014,09,16,00,01,16.70
2014,09,16,00,02,16.70
2014,09,16,00,03,16.70
2014,09,16,00,04,16.70
2014,09,16,00,05,16.70
2014,09,16,00,06,16.70
2014,09,16,00,07,16.60
2014,09,16,00,08,16.60
2014,09,16,00,09,16.60
2014,09,16,00,10,16.50
2014,09,16,00,11,16.40
2014,09,16,00,12,16.40
2014,09,16,00,13,16.40
2014,09,16,00,14,16.40
2014,09,16,00,15,16.40
2014,09,16,00,16,16.40
2014,09,16,00,17,16.40
2014,09,16,00,18,16.50
2014,09,16,00,19,16.60
2014,09,16,00,20,16.60
2014,09,16,00,21,16.60
2014,09,16,00,22,16.60
2014,09,16,00,23,16.60
2014,09,16,00,24,16.70
2014,09,16,00,25,16.70
2014,09,16,00,26,16.70
2014,09,16,00,27,16.70
2014,09,16,00,28,16.70
2014,09,16,00,29,16.70
2014,09,16,00,30,16.70
2014,09,16,00,31,16.70
2014,09,16,00,32,16.70
2014,09,16,00,33,16.70
2014,09,16,00,34,16.70
2014,09,16,00,35,16.80
2014,09,16,00,36,16.80
2014,09,16,00,37,16.80
2014,09,16,00,38,16.80
2014,09,16,00,39,16.80
2014,09,16,00,40,16.80
2014,09,16,00,41,16.80
2014,09,16,00,42,16.80
2014,09,16,00,43,16.80
2014,09,16,00,44,16.70
2014,09,16,00,45,16.70
2014,09,16,00,46,16.70
2014,09,16,00,47,16.70
2014,09,16,00,48,16.70
2014,09,16,00,49,16.70
2014,09,16,00,50,16.70
2014,09,16,00,51,16.70
2014,09,16,00,52,16.60
2014,09,16,00,53,16.60
2014,09,16,00,54,16.60
2014,09,16,00,55,16.50
2014,09,16,00,56,16.40
2014,09,16,00,57,16.40
2014,09,16,00,58,16.40
2014,09,16,00,59,16.40
2014,09,16,01,00,16.30
2014,09,16,01,01,16.30
2014,09,16,01,02,16.20
2014,09,16,01,03,16.20
2014,09,16,01,04,16.20
2014,09,16,01,05,16.20
2014,09,16,01,06,16.20
2014,09,16,01,07,16.20
2014,09,16,01,08,16.20
2014,09,16,01,09,16.30
2014,09,16,01,10,16.30
2014,09,16,01,11,16.30
2014,09,16,01,12,16.40
2014,09,16,01,13,16.40
2014,09,16,01,14,16.40
2014,09,16,01,15,16.40
2014,09,16,01,16,16.50
2014,09,16,01,17,16.60
2014,09,16,01,18,16.60
2014,09,16,01,19,16.60
2014,09,16,01,20,16.60
2014,09,16,01,21,16.60
2014,09,16,01,22,16.60
2014,09,16,01,23,16.50
2014,09,16,01,24,16.40
2014,09,16,01,25,16.40
2014,09,16,01,26,16.40
2014,09,16,01,27,16.40
2014,09,16,01,28,16.40
2014,09,16,01,29,16.40
2014,09,16,01,30,16.40
2014,09,16,01,31,16.40
2014,09,16,01,32,16.30
2014,09,16,01,33,16.30
2014,09,16,01,34,16.30
2014,09,16,01,35,16.30
2014,09,16,01,36,16.20
2014,09,16,01,37,16.20
2014,09,16,01,38,16.20
2014,09,16,01,39,16.10
2014,09,16,01,40,16.10
2014,09,16,01,41,16.10
2014,09,16,01,42,16.10
2014,09,16,01,43,16.10
2014,09,16,01,44,16.10
2014,09,16,01,45,15.90
2014,09,16,01,46,15.90
2014,09,16,01,47,15.90
2014,09,16,01,48,15.80
2014,09,16,01,49,15.80
2014,09,16,01,50,15.80
2014,09,16,01,51,15.80
2014,09,16,01,52,15.80
2014,09,16,01,53,15.80
2014,09,16,01,54,15.80
2014,09,16,01,55,15.80
2014,09,16,01,56,15.70
2014,09,16,01,57,15.70
2014,09,16,01,58,15.70
2014,09,16,01,59,15.70
2014,09,16,02,00,15.70
2014,09,16,02,01,15.70
2014,09,16,02,02,15.70
2014,09,16,02,03,15.70
2014,09,16,02,04,15.70
2014,09,16,02,05,15.60
2014,09,16,02,06,15.60
2014,09,16,02,07,15.60
2014,09,16,02,08,15.50
2014,09,16,02,09,15.50
2014,09,16,02,10,15.40
2014,09,16,02,11,15.30
2014,09,16,02,12,15.30
2014,09,16,02,13,15.30
2014,09,16,02,14,15.20
2014,09,16,02,15,15.20
2014,09,16,02,16,15.10
2014,09,16,02,17,15.10
2014,09,16,02,18,15.00
2014,09,16,02,19,15.00
2014,09,16,02,20,15.00
2014,09,16,02,21,14.90
2014,09,16,02,22,14.90
2014,09,16,02,23,14.90
2014,09,16,02,24,14.90
2014,09,16,02,25,14.90
2014,09,16,02,26,14.80
2014,09,16,02,27,14.80
2014,09,16,02,28,14.80
2014,09,16,02,29,14.80
2014,09,16,02,30,14.70
2014,09,16,02,31,14.70
2014,09,16,02,32,14.60
2014,09,16,02,33,14.60
2014,09,16,02,34,14.60
2014,09,16,02,35,14.60
2014,09,16,02,36,14.50
2014,09,16,02,37,14.50
2014,09,16,02,38,14.50
2014,09,16,02,39,14.50
2014,09,16,02,40,14.50
2014,09,16,02,41,14.40
2014,09,16,02,42,14.40
2014,09,16,02,43,14.40
2014,09,16,02,44,14.40
2014,09,16,02,45,14.40
2014,09,16,02,46,14.40
2014,09,16,02,47,14.50
2014,09,16,02,48,14.50
2014,09,16,02,49,14.50
2014,09,16,02,50,14.50
2014,09,16,02,51,14.50
2014,09,16,02,52,14.50
2014,09,16,02,53,14.50
2014,09,16,02,54,14.50
2014,09,16,02,55,14.40
2014,09,16,02,56,14.40
2014,09,16,02,57,14.40
2014,09,16,02,58,14.40
2014,09,16,02,59,14.40
2014,09,16,03,00,14.40
2014,09,16,03,01,14.50
2014,09,16,03,02,14.50
2014,09,16,03,03,14.50
2014,09,16,03,04,14.50
2014,09,16,03,05,14.50
2014,09,16,03,06,14.50
2014,09,16,03,07,14.40
2014,09,16,03,08,14.40
2014,09,16,03,09,14.40
2014,09,16,03,10,14.40
2014,09,16,03,11,14.40
2014,09,16,03,12,14.40
2014,09,16,03,13,14.30
2014,09,16,03,14,14.30
2014,09,16,03,15,14.30
2014,09,16,03,16,14.30
2014,09,16,03,17,14.30
2014,09,16,03,18,14.20
2014,09,16,03,19,14.20
2014,09,16,03,20,14.20
2014,09,16,03,21,14.20
2014,09,16,03,22,14.20
2014,09,16,03,23,14.20
2014,09,16,03,24,14.20
2014,09,16,03,25,14.20
2014,09,16,03,26,14.20
2014,09,16,03,27,14.20
2014,09,16,03,28,14.20
2014,09,16,03,29,14.20
2014,09,16,03,30,14.20
2014,09,16,03,31,14.20
2014,09,16,03,32,14.10
2014,09,16,03,33,14.10
2014,09,16,03,34,14.10
2014,09,16,03,35,14.10
2014,09,16,03,36,14.00
2014,09,16,03,37,14.00
2014,09,16,03,38,14.00
2014,09,16,03,39,14.00
2014,09,16,03,40,14.00
2014,09,16,03,41,14.00
2014,09,16,03,42,14.00
2014,09,16,03,43,14.00
2014,09,16,03,44,13.90
2014,09,16,03,45,13.90
2014,09,16,03,46,13.90
2014,09,16,03,47,13.90
2014,09,16,03,48,13.90
2014,09,16,03,49,13.90
2014,09,16,03,50,13.90
2014,09,16,03,51,13.90
2014,09,16,03,52,13.90
2014,09,16,03,53,14.00
2014,09,16,03,54,14.00
2014,09,16,03,55,14.00
2014,09,16,03,56,14.00
2014,09,16,03,57,14.00
2014,09,16,03,58,13.90
2014,09,16,03,59,13.90
2014,09,16,04,00,13.90
2014,09,16,04,01,13.90
2014,09,16,04,02,13.90
2014,09,16,04,03,13.90
2014,09,16,04,04,13.90
2014,09,16,04,05,14.00
2014,09,16,04,06,14.10
2014,09,16,04,07,14.20
2014,09,16,04,08,14.20
2014,09,16,04,09,14.20
2014,09,16,04,10,14.30
2014,09,16,04,11,14.40
2014,09,16,04,12,14.40
2014,09,16,04,13,14.40
2014,09,16,04,14,14.40
2014,09,16,04,15,14.40
2014,09,16,04,16,14.40
2014,09,16,04,17,14.40
2014,09,16,04,18,14.30
2014,09,16,04,19,14.30
2014,09,16,04,20,14.30
2014,09,16,04,21,14.30
2014,09,16,04,22,14.40
2014,09,16,04,23,14.40
2014,09,16,04,24,14.40
2014,09,16,04,25,14.50
2014,09,16,04,26,14.50
2014,09,16,04,27,14.50
2014,09,16,04,28,14.60
2014,09,16,04,29,14.60
2014,09,16,04,30,14.60
2014,09,16,04,31,14.70
2014,09,16,04,32,14.80
2014,09,16,04,33,14.90
2014,09,16,04,34,15.00
2014,09,16,04,35,15.00
2014,09,16,04,36,15.10
2014,09,16,04,37,15.10
2014,09,16,04,38,15.20
2014,09,16,04,39,15.20
2014,09,16,04,40,15.30
2014,09,16,04,41,15.30
2014,09,16,04,42,15.30
2014,09,16,04,43,15.40
2014,09,16,04,44,15.40
2014,09,16,04,45,15.40
2014,09,16,04,46,15.50
2014,09,16,04,47,15.50
2014,09,16,04,48,15.50
2014,09,16,04,49,15.50
2014,09,16,04,50,15.40
2014,09,16,04,51,15.40
2014,09,16,04,52,15.30
2014,09,16,04,53,15.30
2014,09,16,04,54,15.30
2014,09,16,04,55,15.30
2014,09,16,04,56,15.20
2014,09,16,04,57,15.20
2014,09,16,04,58,15.20
2014,09,16,04,59,15.20
2014,09,16,05,00,15.20
2014,09,16,05,01,15.20
2014,09,16,05,02,15.20
2014,09,16,05,03,15.20
2014,09,16,05,04,15.20
2014,09,16,05,05,15.10
2014,09,16,05,06,15.10
2014,09,16,05,07,15.10
2014,09,16,05,08,15.10
2014,09,16,05,09,15.10
2014,09,16,05,10,15.10
2014,09,16,05,11,15.20
2014,09,16,05,12,15.20
2014,09,16,05,13,15.20
2014,09,16,05,14,15.20
2014,09,16,05,15,15.20
2014,09,16,05,16,15.20
2014,09,16,05,17,15.20
2014,09,16,05,18,15.20
2014,09,16,05,19,15.20
2014,09,16,05,20,15.20
2014,09,16,05,21,15.10
2014,09,16,05,22,15.10
2014,09,16,05,23,15.10
2014,09,16,05,24,15.10
2014,09,16,05,25,15.00
2014,09,16,05,26,15.00
2014,09,16,05,27,14.90
2014,09,16,05,28,14.90
2014,09,16,05,29,14.80
2014,09,16,05,30,14.80
2014,09,16,05,31,14.70
2014,09,16,05,32,14.60
2014,09,16,05,33,14.60
2014,09,16,05,34,14.60
2014,09,16,05,35,14.50
2014,09,16,05,36,14.50
2014,09,16,05,37,14.40
2014,09,16,05,38,14.40
2014,09,16,05,39,14.20
2014,09,16,05,40,14.20
2014,09,16,05,41,14.10
2014,09,16,05,42,14.00
2014,09,16,05,43,14.00
2014,09,16,05,44,13.90
2014,09,16,05,45,13.90
2014,09,16,05,46,13.80
2014,09,16,05,47,13.80
2014,09,16,05,48,13.80
2014,09,16,05,49,13.70
2014,09,16,05,50,13.70
2014,09,16,05,51,13.70
2014,09,16,05,52,13.80
2014,09,16,05,53,13.80
2014,09,16,05,54,13.80
2014,09,16,05,55,13.80
2014,09,16,05,56,13.80
2014,09,16,05,57,13.80
2014,09,16,05,58,13.90
2014,09,16,05,59,13.90
2014,09,16,06,00,13.80
2014,09,16,06,01,13.80
2014,09,16,06,02,13.80
2014,09,16,06,03,13.80
2014,09,16,06,04,13.70
2014,09,16,06,05,13.70
2014,09,16,06,06,13.70
2014,09,16,06,07,13.70
2014,09,16,06,08,13.70
2014,09,16,06,09,13.70
2014,09,16,06,10,13.70
2014,09,16,06,11,13.70
2014,09,16,06,12,13.60
2014,09,16,06,13,13.60
2014,09,16,06,14,13.50
2014,09,16,06,15,13.50
2014,09,16,06,16,13.50
2014,09,16,06,17,13.40
2014,09,16,06,18,13.40
2014,09,16,06,19,13.30
2014,09,16,06,20,13.30
2014,09,16,06,21,13.30
2014,09,16,06,22,13.30
2014,09,16,06,23,13.20
2014,09,16,06,24,13.20
2014,09,16,06,25,13.20
2014,09,16,06,26,13.10
2014,09,16,06,27,13.10
2014,09,16,06,28,13.10
2014,09,16,06,29,13.00
2014,09,16,06,30,13.00
2014,09,16,06,31,13.00
2014,09,16,06,32,13.00
2014,09,16,06,33,12.90
2014,09,16,06,34,12.90
2014,09,16,06,35,12.90
2014,09,16,06,36,12.80
2014,09,16,06,37,12.80
2014,09,16,06,38,12.80
2014,09,16,06,39,12.80
2014,09,16,06,40,12.70
2014,09,16,06,41,12.70
2014,09,16,06,42,12.60
2014,09,16,06,43,12.60
2014,09,16,06,44,12.50
2014,09,16,06,45,12.50
2014,09,16,06,46,12.50
2014,09,16,06,47,12.50
2014,09,16,06,48,12.40
2014,09,16,06,49,12.40
2014,09,16,06,50,12.40
2014,09,16,06,51,12.30
2014,09,16,06,52,12.30
2014,09,16,06,53,12.30
2014,09,16,06,54,12.30
2014,09,16,06,55,12.30
2014,09,16,06,56,12.30
2014,09,16,06,57,12.30
2014,09,16,06,58,12.30
2014,09,16,06,59,12.30
2014,09,16,07,00,12.30
2014,09,16,07,01,12.30
2014,09,16,07,02,12.30
2014,09,16,07,03,12.30
2014,09,16,07,04,12.30
2014,09,16,07,05,12.30
2014,09,16,07,06,12.30
2014,09,16,07,07,12.20
2014,09,16,07,08,12.20
2014,09,16,07,09,12.20
2014,09,16,07,10,12.20
2014,09,16,07,11,12.20
2014,09,16,07,12,12.20
2014,09,16,07,13,12.20
2014,09,16,07,14,12.20
2014,09,16,07,15,12.30
2014,09,16,07,16,12.30
2014,09,16,07,17,12.30
2014,09,16,07,18,12.30
2014,09,16,07,19,12.30
2014,09,16,07,20,12.30
2014,09,16,07,21,12.30
2014,09,16,07,22,12.30
2014,09,16,07,23,12.40
2014,09,16,07,24,12.50
2014,09,16,07,25,12.50
2014,09,16,07,26,12.60
2014,09,16,07,27,12.60
2014,09,16,07,28,12.70
2014,09,16,07,29,12.70
2014,09,16,07,30,12.80
2014,09,16,07,31,12.80
2014,09,16,07,32,12.80
2014,09,16,07,33,12.80
2014,09,16,07,34,12.90
2014,09,16,07,35,12.90
2014,09,16,07,36,12.90
2014,09,16,07,37,12.90
2014,09,16,07,38,12.80
2014,09,16,07,39,12.80
2014,09,16,07,40,12.80
2014,09,16,07,41,12.80
2014,09,16,07,42,12.70
2014,09,16,07,43,12.70
2014,09,16,07,44,12.60
2014,09,16,07,45,12.60
2014,09,16,07,46,12.60
2014,09,16,07,47,12.60
2014,09,16,07,48,12.60
2014,09,16,07,49,12.60
2014,09,16,07,50,12.50
2014,09,16,07,51,12.50
2014,09,16,07,52,12.50
2014,09,16,07,53,12.50
2014,09,16,07,54,12.50
2014,09,16,07,55,12.50
2014,09,16,07,56,12.50
2014,09,16,07,57,12.50
2014,09,16,07,58,12.50
2014,09,16,07,59,12.50
2014,09,16,08,00,12.50
2014,09,16,08,01,12.50
2014,09,16,08,02,12.50
2014,09,16,08,03,12.60
2014,09,16,08,04,12.60
2014,09,16,08,05,12.60
2014,09,16,08,06,12.70
2014,09,16,08,07,12.70
2014,09,16,08,08,12.80
2014,09,16,08,09,12.80
2014,09,16,08,10,12.90
2014,09,16,08,11,13.00
2014,09,16,08,12,13.00
2014,09,16,08,13,13.10
2014,09,16,08,14,13.20
2014,09,16,08,15,13.30
2014,09,16,08,16,13.40
2014,09,16,08,17,13.50
2014,09,16,08,18,13.50
2014,09,16,08,19,13.60
2014,09,16,08,20,13.70
2014,09,16,08,21,13.70
2014,09,16,08,22,13.80
2014,09,16,08,23,13.80
2014,09,16,08,24,13.90
2014,09,16,08,25,14.00
2014,09,16,08,26,14.10
2014,09,16,08,27,14.20
2014,09,16,08,28,14.20
2014,09,16,08,29,14.30
2014,09,16,08,30,14.40
2014,09,16,08,31,14.40
2014,09,16,08,32,14.40
2014,09,16,08,33,14.50
2014,09,16,08,34,14.50
2014,09,16,08,35,14.60
2014,09,16,08,36,14.60
2014,09,16,08,37,14.60
2014,09,16,08,38,14.70
2014,09,16,08,39,14.70
2014,09,16,08,40,14.70
2014,09,16,08,41,14.70
2014,09,16,08,42,14.70
2014,09,16,08,43,14.70
2014,09,16,08,44,14.70
2014,09,16,08,45,14.70
2014,09,16,08,46,14.70
2014,09,16,08,47,14.80
2014,09,16,08,48,14.80
2014,09,16,08,49,14.80
2014,09,16,08,50,14.80
2014,09,16,08,51,14.80
2014,09,16,08,52,14.90
2014,09,16,08,53,14.90
2014,09,16,08,54,15.00
2014,09,16,08,55,15.00
2014,09,16,08,56,15.10
2014,09,16,08,57,15.20
2014,09,16,08,58,15.30
2014,09,16,08,59,15.30
2014,09,16,09,00,15.30
2014,09,16,09,01,15.30
2014,09,16,09,02,15.30
2014,09,16,09,03,15.30
2014,09,16,09,04,15.40
2014,09,16,09,05,15.40
2014,09,16,09,06,15.40
2014,09,16,09,07,15.50
2014,09,16,09,08,15.50
2014,09,16,09,09,15.50
2014,09,16,09,10,15.50
2014,09,16,09,11,15.60
2014,09,16,09,12,15.60
2014,09,16,09,13,15.60
2014,09,16,09,14,15.60
2014,09,16,09,15,15.60
2014,09,16,09,16,15.70
2014,09,16,09,17,15.70
2014,09,16,09,18,15.80
2014,09,16,09,19,15.80
2014,09,16,09,20,15.90
2014,09,16,09,21,16.00
2014,09,16,09,22,16.10
2014,09,16,09,23,16.10
2014,09,16,09,24,16.10
2014,09,16,09,25,16.10
2014,09,16,09,26,16.10
2014,09,16,09,27,16.10
2014,09,16,09,28,16.10
2014,09,16,09,29,16.10
2014,09,16,09,30,16.10
2014,09,16,09,31,16.10
2014,09,16,09,32,16.10
2014,09,16,09,33,16.10
2014,09,16,09,34,16.10
2014,09,16,09,35,16.10
2014,09,16,09,36,16.10
2014,09,16,09,37,16.10
2014,09,16,09,38,16.10
2014,09,16,09,39,16.10
2014,09,16,09,40,16.10
2014,09,16,09,41,16.10
2014,09,16,09,42,16.10
2014,09,16,09,43,15.90
2014,09,16,09,44,15.90
2014,09,16,09,45,15.80
2014,09,16,09,46,15.80
2014,09,16,09,47,15.70
2014,09,16,09,48,15.70
2014,09,16,09,49,15.60
2014,09,16,09,50,15.60
2014,09,16,09,51,15.60
2014,09,16,09,52,15.50
2014,09,16,09,53,15.50
2014,09,16,09,54,15.50
2014,09,16,09,55,15.50
2014,09,16,09,56,15.50
2014,09,16,09,57,15.60
2014,09,16,09,58,15.60
2014,09,16,09,59,15.60
2014,09,16,10,00,15.60
2014,09,16,10,01,15.60
2014,09,16,10,02,15.60
2014,09,16,10,03,15.60
2014,09,16,10,04,15.70
2014,09,16,10,05,15.70
2014,09,16,10,06,15.70
2014,09,16,10,07,15.70
2014,09,16,10,08,15.70
2014,09,16,10,09,15.70
2014,09,16,10,10,15.70
2014,09,16,10,11,15.80
2014,09,16,10,12,15.80
2014,09,16,10,13,15.80
2014,09,16,10,14,15.80
2014,09,16,10,15,15.80
2014,09,16,10,16,15.80
2014,09,16,10,17,15.80
2014,09,16,10,18,15.80
2014,09,16,10,19,15.80
2014,09,16,10,20,15.80
2014,09,16,10,21,15.80
2014,09,16,10,22,15.80
2014,09,16,10,23,15.80
2014,09,16,10,24,15.80
2014,09,16,10,25,15.80
2014,09,16,10,26,15.80
2014,09,16,10,27,15.80
2014,09,16,10,28,15.80
2014,09,16,10,29,15.80
2014,09,16,10,30,15.90
2014,09,16,10,31,15.90
2014,09,16,10,32,16.00
2014,09,16,10,33,16.10
2014,09,16,10,34,16.20
2014,09,16,10,35,16.30
2014,09,16,10,36,16.40
2014,09,16,10,37,16.40
2014,09,16,10,38,16.60
2014,09,16,10,39,16.70
2014,09,16,10,40,16.80
2014,09,16,10,41,16.90
2014,09,16,10,42,17.00
2014,09,16,10,43,17.10
2014,09,16,10,44,17.20
2014,09,16,10,45,17.30
2014,09,16,10,46,17.40
2014,09,16,10,47,17.50
2014,09,16,10,48,17.50
2014,09,16,10,49,17.70
2014,09,16,10,50,17.70
2014,09,16,10,51,17.80
2014,09,16,10,52,17.90
2014,09,16,10,53,17.90
2014,09,16,10,54,18.00
2014,09,16,10,55,18.10
2014,09,16,10,56,18.20
2014,09,16,10,57,18.20
2014,09,16,10,58,18.30
2014,09,16,10,59,18.30
2014,09,16,11,00,18.40
2014,09,16,11,01,18.40
2014,09,16,11,02,18.40
2014,09,16,11,03,18.50
2014,09,16,11,04,18.50
2014,09,16,11,05,18.60
2014,09,16,11,06,18.60
2014,09,16,11,07,18.60
2014,09,16,11,08,18.60
2014,09,16,11,09,18.70
2014,09,16,11,10,18.80
2014,09,16,11,11,18.90
2014,09,16,11,12,19.10
2014,09,16,11,13,19.20
2014,09,16,11,14,19.30
2014,09,16,11,15,19.30
2014,09,16,11,16,19.30
2014,09,16,11,17,19.30
2014,09,16,11,18,19.30
2014,09,16,11,19,19.30
2014,09,16,11,20,19.30
2014,09,16,11,21,19.30
2014,09,16,11,22,19.30
2014,09,16,11,23,19.40
2014,09,16,11,24,19.40
2014,09,16,11,25,19.40
2014,09,16,11,26,19.40
2014,09,16,11,27,19.40
2014,09,16,11,28,19.40
2014,09,16,11,29,19.50
2014,09,16,11,30,19.50
2014,09,16,11,31,19.60
2014,09,16,11,32,19.60
2014,09,16,11,33,19.70
2014,09,16,11,34,19.80
2014,09,16,11,35,19.90
2014,09,16,11,36,19.90
2014,09,16,11,37,20.10
2014,09,16,11,38,20.20
2014,09,16,11,39,20.30
2014,09,16,11,40,20.40
2014,09,16,11,41,20.50
2014,09,16,11,42,20.60
2014,09,16,11,43,20.60
2014,09,16,11,44,20.60
2014,09,16,11,45,20.60
2014,09,16,11,46,20.60
2014,09,16,11,47,20.50
2014,09,16,11,48,20.50
2014,09,16,11,49,20.50
2014,09,16,11,50,20.40
2014,09,16,11,51,20.40
2014,09,16,11,52,20.30
2014,09,16,11,53,20.30
2014,09,16,11,54,20.30
2014,09,16,11,55,20.40
2014,09,16,11,56,20.40
2014,09,16,11,57,20.50
2014,09,16,11,58,20.50
2014,09,16,11,59,20.60
2014,09,16,12,00,20.60
2014,09,16,12,01,20.60
2014,09,16,12,02,20.60
2014,09,16,12,03,20.60
2014,09,16,12,04,20.50
2014,09,16,12,05,20.50
2014,09,16,12,06,20.60
2014,09,16,12,07,20.60
2014,09,16,12,08,20.70
2014,09,16,12,09,20.70
2014,09,16,12,10,20.80
2014,09,16,12,11,20.90
2014,09,16,12,12,21.10
2014,09,16,12,13,20.90
2014,09,16,12,14,20.70
2014,09,16,12,15,20.50
2014,09,16,12,16,20.30
2014,09,16,12,17,20.10
2014,09,16,12,18,19.80
2014,09,16,12,19,19.40
2014,09,16,12,20,19.30
2014,09,16,12,21,19.20
2014,09,16,12,22,19.10
2014,09,16,12,23,18.90
2014,09,16,12,24,18.70
2014,09,16,12,25,18.60
2014,09,16,12,26,18.50
2014,09,16,12,27,18.40
2014,09,16,12,28,18.20
2014,09,16,12,29,18.00
2014,09,16,12,30,17.90
2014,09,16,12,31,17.80
2014,09,16,12,32,17.80
2014,09,16,12,33,17.80
2014,09,16,12,34,17.70
2014,09,16,12,35,17.70
2014,09,16,12,36,17.70
2014,09,16,12,37,17.70
2014,09,16,12,38,17.70
2014,09,16,12,39,17.70
2014,09,16,12,40,17.80
2014,09,16,12,41,17.90
2014,09,16,12,42,17.90
2014,09,16,12,43,18.00
2014,09,16,12,44,18.00
2014,09,16,12,45,17.90
2014,09,16,12,46,17.90
2014,09,16,12,47,18.00
2014,09,16,12,48,18.10
2014,09,16,12,49,18.00
2014,09,16,12,50,17.90
2014,09,16,12,51,18.00
2014,09,16,12,52,18.10
2014,09,16,12,53,18.10
2014,09,16,12,54,18.20
2014,09,16,12,55,18.30
2014,09,16,12,56,18.40
2014,09,16,12,57,18.50
2014,09,16,12,58,18.50
2014,09,16,12,59,18.60
2014,09,16,13,00,18.70
2014,09,16,13,01,18.80
2014,09,16,13,02,18.90
2014,09,16,13,03,18.90
2014,09,16,13,04,19.10
2014,09,16,13,05,19.10
2014,09,16,13,06,19.10
2014,09,16,13,07,19.10
2014,09,16,13,08,19.10
2014,09,16,13,09,19.10
2014,09,16,13,10,19.00
2014,09,16,13,11,18.90
2014,09,16,13,12,18.70
2014,09,16,13,13,18.60
2014,09,16,13,14,18.50
2014,09,16,13,15,18.40
2014,09,16,13,16,18.30
2014,09,16,13,17,18.20
2014,09,16,13,18,18.10
2014,09,16,13,19,17.90
2014,09,16,13,20,17.60
2014,09,16,13,21,17.50
2014,09,16,13,22,17.40
2014,09,16,13,23,17.30
2014,09,16,13,24,17.30
2014,09,16,13,25,17.30
2014,09,16,13,26,17.30
2014,09,16,13,27,17.30
2014,09,16,13,28,17.30
2014,09,16,13,29,17.40
2014,09,16,13,30,17.50
2014,09,16,13,31,17.60
2014,09,16,13,32,17.50
2014,09,16,13,33,17.50
2014,09,16,13,34,17.50
2014,09,16,13,35,17.50
2014,09,16,13,36,17.50
2014,09,16,13,37,17.60
2014,09,16,13,38,17.60
2014,09,16,13,39,17.70
2014,09,16,13,40,17.70
2014,09,16,13,41,17.90
2014,09,16,13,42,17.90
2014,09,16,13,43,18.10
2014,09,16,13,44,18.20
2014,09,16,13,45,18.20
2014,09,16,13,46,18.30
2014,09,16,13,47,18.30
2014,09,16,13,48,18.40
2014,09,16,13,49,18.40
2014,09,16,13,50,18.30
2014,09,16,13,51,18.30
2014,09,16,13,52,18.30
2014,09,16,13,53,18.30
2014,09,16,13,54,18.30
2014,09,16,13,55,18.40
2014,09,16,13,56,18.50
2014,09,16,13,57,18.60
2014,09,16,13,58,18.60
2014,09,16,13,59,18.70
2014,09,16,14,00,18.80
2014,09,16,14,01,18.90
2014,09,16,14,02,19.00
2014,09,16,14,03,19.20
2014,09,16,14,04,19.30
2014,09,16,14,05,19.40
2014,09,16,14,06,19.40
2014,09,16,14,07,19.40
2014,09,16,14,08,19.40
2014,09,16,14,09,19.40
2014,09,16,14,10,19.40
2014,09,16,14,11,19.50
2014,09,16,14,12,19.50
2014,09,16,14,13,19.50
2014,09,16,14,14,19.50
2014,09,16,14,15,19.40
2014,09,16,14,16,19.30
2014,09,16,14,17,19.40
2014,09,16,14,18,19.40
2014,09,16,14,19,19.40
2014,09,16,14,20,19.40
2014,09,16,14,21,19.40
2014,09,16,14,22,19.40
2014,09,16,14,23,19.50
2014,09,16,14,24,19.50
2014,09,16,14,25,19.50
2014,09,16,14,26,19.50
2014,09,16,14,27,19.50
2014,09,16,14,28,19.50
2014,09,16,14,29,19.50
2014,09,16,14,30,19.50
2014,09,16,14,31,19.60
2014,09,16,14,32,19.60
2014,09,16,14,33,19.70
2014,09,16,14,34,19.80
2014,09,16,14,35,19.90
2014,09,16,14,36,20.00
2014,09,16,14,37,20.10
2014,09,16,14,38,20.20
2014,09,16,14,39,20.20
2014,09,16,14,40,20.20
2014,09,16,14,41,20.30
2014,09,16,14,42,20.40
2014,09,16,14,43,20.40
2014,09,16,14,44,20.30
2014,09,16,14,45,20.20
2014,09,16,14,46,20.20
2014,09,16,14,47,20.20
2014,09,16,14,48,20.20
2014,09,16,14,49,20.20
2014,09,16,14,50,20.20
2014,09,16,14,51,20.20
2014,09,16,14,52,20.20
2014,09,16,14,53,20.10
2014,09,16,14,54,20.10
2014,09,16,14,55,20.20
2014,09,16,14,56,20.20
2014,09,16,14,57,20.20
2014,09,16,14,58,20.30
2014,09,16,14,59,20.30
2014,09,16,15,00,20.40
2014,09,16,15,01,20.50
2014,09,16,15,02,20.50
2014,09,16,15,03,20.60
2014,09,16,15,04,20.70
2014,09,16,15,05,20.80
2014,09,16,15,06,20.80
2014,09,16,15,07,20.80
2014,09,16,15,08,20.80
2014,09,16,15,09,20.70
2014,09,16,15,10,20.60
2014,09,16,15,11,20.60
2014,09,16,15,12,20.50
2014,09,16,15,13,20.50
2014,09,16,15,14,20.50
2014,09,16,15,15,20.50
2014,09,16,15,16,20.40
2014,09,16,15,17,20.20
2014,09,16,15,18,20.20
2014,09,16,15,19,20.20
2014,09,16,15,20,20.20
2014,09,16,15,21,20.20
2014,09,16,15,22,20.20
2014,09,16,15,23,20.30
2014,09,16,15,24,20.30
2014,09,16,15,25,20.30
2014,09,16,15,26,20.40
2014,09,16,15,27,20.50
2014,09,16,15,28,20.50
2014,09,16,15,29,20.60
2014,09,16,15,30,20.70
2014,09,16,15,31,20.90
2014,09,16,15,32,21.00
2014,09,16,15,33,21.10
2014,09,16,15,34,21.30
2014,09,16,15,35,21.40
2014,09,16,15,36,21.50
2014,09,16,15,37,21.60
2014,09,16,15,38,21.70
2014,09,16,15,39,21.70
2014,09,16,15,40,21.70
2014,09,16,15,41,21.80
2014,09,16,15,42,21.80
2014,09,16,15,43,21.90
2014,09,16,15,44,21.90
2014,09,16,15,45,22.00
2014,09,16,15,46,22.10
2014,09,16,15,47,22.10
2014,09,16,15,48,22.20
2014,09,16,15,49,22.30
2014,09,16,15,50,22.20
2014,09,16,15,51,22.20
2014,09,16,15,52,22.20
2014,09,16,15,53,22.20
2014,09,16,15,54,22.30
2014,09,16,15,55,22.30
2014,09,16,15,56,22.40
2014,09,16,15,57,22.50
2014,09,16,15,58,22.50
2014,09,16,15,59,22.40
2014,09,16,16,00,22.50
2014,09,16,16,01,22.60
2014,09,16,16,02,22.60
2014,09,16,16,03,22.50
2014,09,16,16,04,22.50
2014,09,16,16,05,22.50
2014,09,16,16,06,22.50
2014,09,16,16,07,22.50
2014,09,16,16,08,22.50
2014,09,16,16,09,22.50
2014,09,16,16,10,22.40
2014,09,16,16,11,22.20
2014,09,16,16,12,22.00
2014,09,16,16,13,21.60
2014,09,16,16,14,21.10
2014,09,16,16,15,20.60
2014,09,16,16,16,20.30
2014,09,16,16,17,19.90
2014,09,16,16,18,19.70
2014,09,16,16,19,19.60
2014,09,16,16,20,19.60
2014,09,16,16,21,19.70
2014,09,16,16,22,19.60
2014,09,16,16,23,19.60
2014,09,16,16,24,19.50
2014,09,16,16,25,19.40
2014,09,16,16,26,19.40
2014,09,16,16,27,19.40
2014,09,16,16,28,19.30
2014,09,16,16,29,19.20
2014,09,16,16,30,19.10
2014,09,16,16,31,19.10
2014,09,16,16,32,19.00
2014,09,16,16,33,19.00
2014,09,16,16,34,19.00
2014,09,16,16,35,18.90
2014,09,16,16,36,18.90
2014,09,16,16,37,18.60
2014,09,16,16,38,18.40
2014,09,16,16,39,18.40
2014,09,16,16,40,18.40
2014,09,16,16,41,18.40
2014,09,16,16,42,18.40
2014,09,16,16,43,18.30
2014,09,16,16,44,18.20
2014,09,16,16,45,18.20
2014,09,16,16,46,18.20
2014,09,16,16,47,18.20
2014,09,16,16,48,18.20
2014,09,16,16,49,18.10
2014,09,16,16,50,17.90
2014,09,16,16,51,17.80
2014,09,16,16,52,17.70
2014,09,16,16,53,17.60
2014,09,16,16,54,17.70
2014,09,16,16,55,17.70
2014,09,16,16,56,17.70
2014,09,16,16,57,17.70
2014,09,16,16,58,17.70
2014,09,16,16,59,17.60
2014,09,16,17,00,17.50
2014,09,16,17,01,17.50
2014,09,16,17,02,17.40
2014,09,16,17,03,17.40
2014,09,16,17,04,17.40
2014,09,16,17,05,17.40
2014,09,16,17,06,17.50
2014,09,16,17,07,17.60
2014,09,16,17,08,17.70
2014,09,16,17,09,17.80
2014,09,16,17,10,17.90
2014,09,16,17,11,17.80
2014,09,16,17,12,17.70
2014,09,16,17,13,17.70
2014,09,16,17,14,17.60
2014,09,16,17,15,17.50
2014,09,16,17,16,17.40
2014,09,16,17,17,17.40
2014,09,16,17,18,17.30
2014,09,16,17,19,17.30